7 * 24
多渠道服务支持
STARLINK-11406 是 SpaceX Starlink 卫星互联网项目中的一颗低轨卫星,属于第53批发射的星链卫星之一。该卫星于2023年发射,旨在为全球用户提供高速、低延迟的宽带互联网服务。它运行在约550公里高的近地轨道,配备先进通信设备,支持Ka和Ku频段数据传输。Starlink 项目通过部署数千颗此类卫星,构建覆盖全球的卫星网络,特别服务于偏远地区和传统网络难以覆盖的区域。STARLINK-11406 在提升全球互联网接入能力方面发挥着重要作用。
美国
(US)
| 数据来源 | 国际轨道数据 |
| 星历时间: | 2025-12-21T19:53:28+0800 9小时前 查看轨道信息 |
| 半长轴: | 6734.573km |
| 偏心率: | 0.000166 |
| 轨道倾角: | 43.001° |
| 近地点辐角 | 249.274° |
| 升交点赤经 | 126.607° |
| 平近点角 | 110.795° |
| 近地点: | 355.318km |
| 远地点: | 357.554km |
| 周期: | 91.669分钟 |
| 每日圈数: | 15.708608 |